Location: Street
(51.1247°N, 2.7429°W)
Time: 19:05:05
(UTC+01:00)

AO-92 - Visible Passes

Search period start: 28 March 2023 00:00
Search period end: 07 April 2023 00:00
Orbit: 441 x 450 km, 97.3° (Epoch: 27 March)

Date Brightness Start Highest point End Pass type
(mag) Time Alt. Az. Time Alt. Az. Time Alt. Az.
28 Mar ? 21:59:27 10° NNE 21:59:27 10° NNE 21:59:32 10° NNE visible
28 Mar ? 23:33:00 14° NNW 23:33:00 14° NNW 23:33:33 10° NNW visible
29 Mar ? 22:56:10 17° N 22:56:10 17° N 22:57:05 10° N visible
30 Mar ? 22:19:15 14° NNE 22:19:15 14° NNE 22:20:03 10° NNE visible
30 Mar ? 23:52:47 12° NNW 23:52:47 12° NNW 23:53:10 10° NNW visible
31 Mar ? 23:15:49 18° N 23:15:49 18° N 23:16:50 10° NNW visible
01 Apr ? 22:38:46 18° NNE 22:38:46 18° NNE 22:39:57 10° N visible
02 Apr ? 00:12:18 10° NW 00:12:18 10° NW 00:12:19 10° NW visible
02 Apr ? 22:01:40 12° NE 22:01:40 12° NE 22:02:19 10° NNE visible
02 Apr ? 23:35:11 18° NNW 23:35:11 18° NNW 23:36:11 10° NNW visible
03 Apr ? 22:58:01 22° N 22:58:01 22° N 22:59:24 10° N visible
04 Apr ? 22:20:46 17° NE 22:20:46 17° NE 22:22:05 10° NNE visible
04 Apr ? 23:54:17 15° NW 23:54:17 15° NW 23:55:06 10° NNW visible
05 Apr ? 23:16:59 24° NNW 23:16:59 24° NNW 23:18:28 10° NNW visible
06 Apr ? 22:39:36 22° NNE 22:39:36 22° NNE 22:41:16 10° N visible
